Date String (YYYY-MM-DD hh:mm:ss) UTC,Instrument flags,Ambient pressure (hPa),Sample flow (lpm),Bypass flow (lpm),Sample temperature (°C),Ambient temperature (°C),ASC tube jacket temperature (°C),LED temperature (°C),Box temperature (°C),Sample RH (%),Span deviation,Mass concentration (μg/m³),Mass concentration (μg/m³),Mass concentration (μg/m³)
DateTimeUTC,F1_M11,P_M11,Q1_M11,Q2_M11,T1_M11,T2_M11,T3_M11,T4_M11,T5_M11,U1_M11,ZSPAN_M11,X0_M11,X2_M11,X1_M11
2022-04-28 03:00:00,,0821.1,4.99,0.00,29.1,28.4,00.0,38.2,30.9,14.4,-000.6,0021.63,0008.36,0004.62
2022-04-28 03:01:00,,0821.1,4.99,0.00,29.1,28.4,00.0,38.2,30.8,14.4,-000.2,0021.77,0008.38,0004.62
2022-04-28 03:02:00,,0821.1,5.01,0.00,29.1,28.3,00.0,38.1,30.8,14.4,0000.0,0021.79,0008.38,0004.61
2022-04-28 03:03:00,,0821.1,5.01,0.00,29.1,28.2,00.0,38.1,30.8,14.5,0000.0,0021.45,0008.45,0004.60
2022-04-28 03:04:00,,0821.1,4.99,0.00,29.1,28.2,00.0,38.1,30.8,14.5,0000.2,0021.47,0008.50,0004.60
2022-04-28 03:05:00,,0821.1,5.00,0.00,29.0,28.2,00.0,38.1,30.8,14.5,0000.0,0020.74,0008.41,0004.59
2022-04-28 03:06:00,,0821.1,5.01,0.00,29.0,28.2,00.0,38.1,30.7,14.5,0000.0,0020.20,0008.29,0004.59
2022-04-28 03:07:00,,0821.1,5.00,0.00,29.0,28.1,00.0,38.1,30.7,14.5,0000.0,0019.66,0008.19,0004.57
2022-04-28 03:08:00,,0821.1,4.99,0.00,29.0,28.1,00.0,38.1,30.7,14.6,0000.0,0020.15,0008.17,0004.54
2022-04-28 03:09:00,,0821.1,4.99,0.00,28.9,28.0,00.0,38.0,30.7,14.6,0005.0,0019.70,0008.14,0004.52
2022-04-28 03:10:00,,0821.1,5.02,0.00,28.9,28.0,00.0,38.0,30.6,14.6,0004.1,0019.78,0008.15,0004.50
2022-04-28 03:11:00,,0821.1,5.00,0.00,28.9,28.0,00.0,38.0,30.6,14.6,0004.4,0019.58,0008.09,0004.49
2022-04-28 03:12:00,,0821.1,4.99,0.00,28.9,28.0,00.0,38.0,30.6,14.6,0003.9,0019.60,0008.14,0004.49
2022-04-28 03:13:00,,0821.1,5.02,0.00,28.9,27.9,00.0,38.0,30.6,14.6,0000.9,0019.78,0008.11,0004.49
2022-04-28 03:14:00,,0821.1,4.99,0.00,28.9,28.0,00.0,38.0,30.6,14.6,0002.6,0019.63,0008.03,0004.47
2022-04-28 03:15:00,,0821.1,5.00,0.00,28.8,28.0,00.0,37.9,30.5,14.6,0002.2,0019.56,0007.98,0004.45
2022-04-28 03:16:00,,0821.2,5.02,0.00,28.8,28.0,00.0,37.9,30.5,14.6,0000.0,0020.01,0007.99,0004.43
2022-04-28 03:17:00,,0821.2,5.01,0.00,28.8,28.0,00.0,37.9,30.5,14.6,0001.2,0020.78,0008.07,0004.42
2022-04-28 03:18:00,,0821.2,4.99,0.00,28.8,28.0,00.0,37.9,30.5,14.6,0003.7,0021.09,0008.07,0004.43
2022-04-28 03:19:00,,0821.2,4.99,0.00,28.8,28.0,00.0,37.9,30.5,14.6,0001.9,0020.05,0007.99,0004.44
2022-04-28 03:20:00,,0821.2,5.01,0.00,28.8,28.0,00.0,37.9,30.5,14.6,0000.0,0019.67,0007.97,0004.44
2022-04-28 03:21:00,,0821.1,4.99,0.00,28.8,27.9,00.0,37.9,30.5,14.6,0000.0,0019.85,0008.05,0004.45
2022-04-28 03:22:00,,0821.2,5.00,0.00,28.8,27.9,00.0,37.9,30.5,14.6,0000.0,0020.05,0008.06,0004.46
2022-04-28 03:23:00,,0821.2,5.00,0.00,28.8,28.0,00.0,37.8,30.5,14.6,0000.0,0020.05,0007.93,0004.46
2022-04-28 03:24:00,,0821.2,5.02,0.00,28.8,27.9,00.0,37.8,30.5,14.6,0003.4,0020.32,0007.90,0004.46
2022-04-28 03:25:00,,0821.2,5.00,0.00,28.7,27.9,00.0,37.8,30.5,14.6,0001.5,0020.51,0007.88,0004.46
2022-04-28 03:26:00,,0821.2,4.98,0.00,28.7,27.9,00.0,37.8,30.4,14.6,0002.5,0020.72,0007.87,0004.48
2022-04-28 03:27:00,,0821.2,5.01,0.00,28.7,27.9,00.0,37.8,30.4,14.5,0002.3,0020.12,0007.80,0004.47
2022-04-28 03:28:00,,0821.2,5.01,0.00,28.7,27.9,00.0,37.8,30.4,14.5,0001.1,0020.73,0007.75,0004.49
2022-04-28 03:29:00,,0821.2,4.99,0.00,28.7,27.9,00.0,37.8,30.4,14.5,0000.0,0020.83,0007.82,0004.50
2022-04-28 03:30:00,,0821.2,4.99,0.00,28.7,27.8,00.0,37.8,30.4,14.5,0000.0,0021.24,0007.86,0004.50
2022-04-28 03:31:00,,0821.2,5.01,0.00,28.7,27.8,00.0,37.7,30.4,14.5,0000.0,0021.70,0008.00,0004.52
2022-04-28 03:32:00,,0821.2,5.01,0.00,28.7,27.8,00.0,37.7,30.3,14.5,0000.0,0021.91,0007.94,0004.51
2022-04-28 03:33:00,,0821.2,4.99,0.00,28.6,27.8,00.0,37.7,30.3,14.5,0000.6,0022.14,0007.92,0004.50
2022-04-28 03:34:00,,0821.2,5.00,0.00,28.6,27.8,00.0,37.7,30.3,14.5,0000.2,0021.85,0007.86,0004.50
2022-04-28 03:35:00,,0821.2,5.01,0.00,28.6,27.8,00.0,37.7,30.3,14.5,0000.0,0021.37,0007.84,0004.51
2022-04-28 03:36:00,,0821.2,5.00,0.00,28.6,27.8,00.0,37.7,30.3,14.5,0000.0,0021.69,0007.86,0004.51
2022-04-28 03:37:00,,0821.2,5.00,0.00,28.6,27.8,00.0,37.7,30.3,14.5,0000.0,0022.19,0007.93,0004.50
2022-04-28 03:38:00,,0821.2,4.99,0.00,28.6,27.8,00.0,37.7,30.3,14.5,0000.0,0022.62,0008.00,0004.51
2022-04-28 03:39:00,,0821.2,5.01,0.00,28.6,27.8,00.0,37.7,30.3,14.5,0000.0,0022.12,0008.03,0004.51
2022-04-28 03:40:00,,0821.2,5.00,0.00,28.6,27.8,00.0,37.7,30.3,14.5,0000.0,0022.69,0007.99,0004.49
2022-04-28 03:41:00,,0821.1,4.99,0.00,28.6,27.8,00.0,37.6,30.3,14.5,0000.0,0022.76,0007.99,0004.48
2022-04-28 03:42:00,,0821.2,5.01,0.00,28.6,27.8,00.0,37.6,30.3,14.5,0000.0,0022.49,0007.89,0004.48
2022-04-28 03:43:00,,0821.1,5.01,0.00,28.6,27.8,00.0,37.6,30.3,14.5,0000.0,0022.33,0007.92,0004.49
2022-04-28 03:44:00,,0821.1,5.00,0.00,28.6,27.8,00.0,37.6,30.3,14.5,0000.0,0022.57,0007.97,0004.51
2022-04-28 03:45:00,,0821.1,4.99,0.00,28.5,27.8,00.0,37.6,30.2,14.5,0000.0,0022.83,0008.02,0004.52
2022-04-28 03:46:00,,0821.1,5.00,0.00,28.5,27.8,00.0,37.6,30.2,14.5,0000.0,0022.85,0008.03,0004.52
2022-04-28 03:47:00,,0821.2,5.01,0.00,28.5,27.8,00.0,37.6,30.2,14.5,0000.0,0022.11,0008.01,0004.53
2022-04-28 03:48:00,,0821.1,5.01,0.00,28.5,27.8,00.0,37.6,30.2,14.5,0000.0,0021.95,0007.94,0004.54
2022-04-28 03:49:00,,0821.1,4.98,0.00,28.5,27.8,00.0,37.6,30.2,14.4,0001.5,0021.53,0007.85,0004.54
2022-04-28 03:50:00,,0821.1,4.99,0.00,28.5,27.7,00.0,37.6,30.2,14.4,0002.3,0020.83,0007.87,0004.52
2022-04-28 03:51:00,,0821.1,5.02,0.00,28.5,27.6,00.0,37.6,30.2,14.4,0002.6,0020.21,0007.83,0004.52
2022-04-28 03:52:00,,0821.1,5.00,0.00,28.5,27.6,00.0,37.5,30.1,14.4,0002.6,0019.69,0007.83,0004.53
2022-04-28 03:53:00,,0821.1,4.99,0.00,28.4,27.6,00.0,37.5,30.1,14.4,0002.6,0019.93,0007.88,0004.52
2022-04-28 03:54:00,,0821.2,5.00,0.00,28.4,27.6,00.0,37.5,30.1,14.4,0003.5,0020.86,0007.87,0004.50
2022-04-28 03:55:00,,0821.2,5.01,0.00,28.4,27.6,00.0,37.5,30.1,14.4,0004.0,0020.44,0007.88,0004.50
2022-04-28 03:56:00,,0821.2,4.99,0.00,28.4,27.6,00.0,37.5,30.1,14.4,0004.9,0020.37,0007.85,0004.49
2022-04-28 03:57:00,,0821.1,4.99,0.00,28.4,27.7,00.0,37.5,30.1,14.4,0005.0,0020.45,0007.92,0004.49
2022-04-28 03:58:00,,0821.2,5.00,0.00,28.4,27.7,00.0,37.5,30.1,14.4,0003.5,0020.95,0007.93,0004.49
2022-04-28 03:59:00,,0821.2,4.99,0.00,28.4,27.7,00.0,37.5,30.1,14.4,0002.2,0020.73,0007.99,0004.49
